User: anonymous
Location: Mason Neck State Park
(38.6428°N, 77.1981°W)
Time: 16:25:42
(UTC-04:00)
Language:

Cosmos 1400 Rocket - Orbit

View from above orbital plane
View from above orbital plane
View from above satellite
View from above satellite

Ground track
Ground track

The orbit data is extracted from the following two-line orbital elements,

1 13403U 82079B   14232.45416269  .00001247  00000-0  88064-4 0  6391
2 13403 081.1732 009.3186 0036952 074.1777 286.3514 15.03664984741478
Epoch (UTC): 20 August 2014 10:53:59
Eccentricity: 0.0036952
inclination: 81.1732°
perigee height: 530 km
apogee height: 581 km
right ascension of ascending node: 9.3186°
argument of perigee: 74.1777°
revolutions per day: 15.03664984
mean anomaly at epoch: 286.3514°
orbit number at epoch: 74147

The dashed part of the orbit path shows where the satellite is in the earth's shadow,  

DLR